AirNav   Air Wisconsin Up To $57,000 Bonus
 
 571 users online  

0MO7 SSM Health St Joseph Hospital-Lake St. Louis Heliport
Lake Saint Louis, Missouri, USA

GOING TO LAKE SAINT LOUIS?


FAA INFORMATION EFFECTIVE 01 DECEMBER 2022

Location

FAA Identifier: 0MO7
Lat/Long: 38-48-11.8100N 090-46-34.5300W
38-48.196833N 090-46.575500W
38.8032806,-90.7762583
(estimated)
Elevation: 531 ft. / 162 m (estimated)
Variation: 02E (1985)
From city: 1 mile N of LAKE SAINT LOUIS, MO
Time zone: UTC -6 (UTC -5 during Daylight Saving Time)
Zip code: 63367

Heliport Operations

Heliport use: Private use, MEDICAL USE.
Activation date: 06/1991
Control tower: no
ARTCC: KANSAS CITY CENTER
FSS: SAINT LOUIS FLIGHT SERVICE STATION
Attendance: UNATNDD
Wind indicator: yes
Segmented circle: no
Lights: FOR PERI LGTS CALL 636-625-5200.

Heliport Communications

WX ASOS at SUS (10 nm SE): 134.8 (314-890-7255)
WX AWOS-3PT at FYG (16 nm SW): 121.325 (636-433-5914)
WX ASOS at SET (18 nm NE): 118.075 (636-250-4590)
WX ASOS at STL (19 nm E): PHONE 314-890-4790

Nearby radio navigation aids

VOR radial/distance  VOR name  Freq  Var
FTZr049/11.2FORISTELL VORTAC110.8005E
STLr255/14.2ST LOUIS VORTAC117.4001E

 
NDB name  Hdg/Dist  Freq  Var  ID
SNOOP358/9.932601WSU ... ..-
EAVES306/13.122701WFZ ..-. --..

Heliport Services

Runway Information

Helipad H1

Dimensions: 65 x 65 ft. / 20 x 20 m
Surface: concrete
Runway edge lights: PERI
Latitude: 38-48.196833N
Longitude: 090-46.575500W
Elevation: 530.0 ft.
Traffic pattern: leftleft

Heliport Ownership and Management from official FAA records

Ownership: Privately-owned
Owner: SSM HEALTH CARE ST. LOUIS
1015 CORPORATE SQUARE DRIVE, SUITE 160
ST.LOUIS, MO 63132
Phone (314) 989-2895
Manager: JOHN O'BRIEN
1015 CORPORATE SQUARE DRIVE, SUITE 160
ST. LOUIS, MO 63132
Phone (314) 989-2895
GENE WALKENHORST, 100 MEDICAL PLAZA, LAKE ST. LOUIS, MO 63367, 636-625-5319

Additional Remarks

OWNER DESIRES HELIPAD NOT BE CHARTED.
FOR CD CTC ST LOUIS APCH AT 314-890-1018.

Instrument Procedures

There are no published instrument procedures at 0MO7.

Some nearby airports with instrument procedures:

KSUS - Spirit of St Louis Airport (10 nm SE)
1H0 - Creve Coeur Airport (13 nm E)
KFYG - Washington Regional Airport (16 nm SW)
KSET - St Charles County Smartt Airport (18 nm NE)
KSTL - St Louis Lambert International Airport (19 nm E)
 
Loc | Ops | Rwys | IFR | FBO | Links
Com | Nav | Svcs | Stats | Notes
Area around 0MO7 (SSM Health St Joseph Hospital-Lake St. Louis Heliport)
 
Road maps at: MapQuest Bing Google
 
Aerial photo
No photo
 
Sectional chart

 
Airport distance calculator
Flying to SSM Health St Joseph Hospital-Lake St. Louis Heliport? Find the distance to fly.

From to 0MO7

Sunrise and sunset
Times for 07-Dec-2022
 Local
(UTC-6)
 Zulu
(UTC)
Morning civil twilight06:3912:39
Sunrise07:0913:09
Sunset16:4022:40
Evening civil twilight17:1023:10

Current date and time
Zulu (UTC)  07-Dec-2022 07:24:44
Local (UTC-6)  07-Dec-2022 01:24:44
 
METAR
KSUS 
11nm SE 
070701Z AUTO 00000KT 2SM BR OVC002 07/07 A3009 RMK AO2 T00720072
KFYG 
16nm SW 
070655Z AUTO 00000KT 1 1/4SM BR 07/07 A3009 RMK AO2
KSET 
18nm NE 
070654Z AUTO 01004KT 3SM BR FEW005 OVC013 08/07 A3009 RMK AO2 SLP190 T00780067
KSTL 
19nm E 
070651Z 35004KT 1 3/4SM BR OVC003 08/07 A3010 RMK AO2 SLP195 T00780067
TAF
KSUS 
11nm SE 
070520Z 0706/0806 VRB03KT 1SM -DZ BR OVC003 FM071500 VRB03KT 4SM BR OVC004 FM071600 VRB03KT P6SM OVC007 FM071800 VRB03KT P6SM OVC015 FM072100 VRB04KT P6SM OVC035
KSTL 
19nm E 
070520Z 0706/0812 VRB04KT 1SM -DZ BR OVC003 FM071300 VRB03KT 3SM BR OVC003 FM071600 VRB03KT 4SM BR OVC011 FM072200 VRB04KT P6SM OVC035 FM080600 VRB04KT P6SM VCSH OVC025
NOTAMs
Click for the latest NOTAMs
NOTAMs are issued by the DoD/FAA and will open in a separate window not controlled by AirNav.

 

 
 

Would you like to see your business listed on this page?

 If your business provides an interesting product or service to pilots, flight crews, aircraft, or users of the SSM Health St Joseph Hospital-Lake St. Louis Heliport, you should consider listing it here.  To start the listing process, click on the button below
 
Add a business
 

Other Pages about SSM Health St Joseph Hospital-Lake St. Louis Heliport

Update a link
 
Copyright © AirNav, LLC. All rights reserved. Privacy Policy  Contact